User: anonymous   Login
Location: Unspecified
(0.0000°N, 0.0000°E)
Time: 18:26:50
(UTC+00:00)
Language:

MOZHAYETS 4 - Orbit

View from above orbital plane
View from above orbital plane
View from above satellite
View from above satellite

Ground track
Ground track

The orbit data is extracted from the following two-line orbital elements,

1 27939U 03042A   17080.92197881 +.00000172 +00000-0 +39363-4 0  9998
2 27939 097.9245 228.5461 0013971 139.1183 333.6019 14.66535133720385
Epoch (UTC): 21 March 2017 22:07:38
Eccentricity: 0.0013971
inclination: 97.9245°
perigee height: 662 km
apogee height: 682 km
right ascension of ascending node: 228.5461°
argument of perigee: 139.1183°
revolutions per day: 14.66535133
mean anomaly at epoch: 333.6019°
orbit number at epoch: 72038

The dashed part of the orbit path shows where the satellite is in the earth's shadow,  

DLR